Volver al catálogo

CO3D1

ActivoCienciaSSO
NORAD 64903·PAYLOAD·🇫🇷 France

Lanzado Jul 26, 2025 desde Guiana Space Centre

Loading…

Próximos Pases (próximas 24 horas)

TLE

ActualizadoSource: Space-Track

Época: Sep 14, 2026, 13:00 UTC

1 64903U 25156E   26257.54193758  .00001007  00000-0  49653-4 0  9994
2 64903  97.4343 334.8492 0001263  96.3774 263.7605 15.20201413 63103

Sigue CO3D1 en tiempo real con AllMySat

Download on the App Store